Weather History for Cartersville, GA

Change the Weather History Date:

Friday, July 26, 2013

  Actual Average Record
Temperature  
Mean Temperature 76 °F 79 °F  
Max Temperature 88 °F 89 °F 96 °F (2010)
Min Temperature 64 °F 68 °F 64 °F (2000)
Cooling Degree Days 11 14  
Month to date cooling degree days 314 344  
Year to date cooling degree days 772 788  
Since 1 June cooling degree days 647 639  
Growing Degree Days 26 (Base 50)    
Moisture  
Dew Point 69 °F    
Average Humidity 78    
Maximum Humidity 100    
Minimum Humidity 55    
Precipitation  
Precipitation 0.00 in 0.12 in 3.25 in (1973)
Month to date precipitation 6.29 4.15  
Year to date precipitation 24.33 30.15  
Sea Level Pressure  
Sea Level Pressure 30.01 in    
Wind  
Wind Speed 2 mph (ESE)    
Max Wind Speed 8 mph    
Max Gust Speed 12 mph    
Visibility 8 miles    
Events      
T = Trace of Precipitation, MM = Missing Value Source: NWS Daily Summary

Daily Weather History Graph

Daily Weather History Graph

Search for Another Location

Airport:

Trip Planner

Search our weather history database for the weather conditions in past years. The results will help you decide how hot, cold, wet, or windy it might be!

Date:

Astronomy

Jul. 26, 2013 Rise Set
Actual Time 6:46 AM EDT 8:44 PM EDT
Civil Twilight 6:18 AM EDT 9:12 PM EDT
Nautical Twilight 5:44 AM EDT 9:46 PM EDT
Astronomical Twilight 5:08 AM EDT 10:22 PM EDT
Moon 11:15 PM EDT (7/26) 11:06 AM EDT (7/26)
Length of Visible Light 14h 54m
Length of Day
13h 58m
Waning Gibbous, 80% of the Moon is Illuminated
Jul 26
Waning Gibbous
Jul 29
Last Quarter
Aug 6
New
Aug 14
First Quarter
Aug 20
Full

Hourly Weather History & Observations

Time (EDT) Temp. Heat Index Dew Point Humidity Pressure Visibility Wind Dir Wind Speed Gust Speed Precip Events Conditions
12:53 AM 68.0 °F - 66.9 °F 96% 30.00 in 10.0 mi Calm Calm - N/A   Clear
1:53 AM 66.0 °F - 66.0 °F 100% 29.99 in 8.0 mi Calm Calm - N/A   Clear
2:53 AM 66.0 °F - 66.0 °F 100% 29.99 in 7.0 mi Calm Calm - N/A   Clear
3:53 AM 66.0 °F - 66.0 °F 100% 29.99 in 6.0 mi Calm Calm - N/A   Clear
4:53 AM 64.0 °F - 64.0 °F 100% 30.00 in 5.0 mi Calm Calm - N/A   Clear
5:53 AM 64.9 °F - 64.9 °F 100% 30.01 in 5.0 mi Calm Calm - N/A   Clear
6:53 AM 64.0 °F - 64.0 °F 100% 30.03 in 4.0 mi Calm Calm - N/A   Clear
7:53 AM 66.0 °F - 66.0 °F 100% 30.04 in 5.0 mi Calm Calm - N/A   Scattered Clouds
8:00 AM 66.2 °F - 66.2 °F 100% 30.07 in 5.0 mi Calm Calm - N/A   Mostly Cloudy
8:53 AM 69.1 °F - 68.0 °F 96% 30.04 in 6.0 mi Calm Calm - N/A   Overcast
9:53 AM 73.9 °F - 70.0 °F 87% 30.05 in 8.0 mi Variable 3.5 mph - N/A   Overcast
10:53 AM 78.1 °F - 72.0 °F 81% 30.05 in 7.0 mi SE 5.8 mph - N/A   Mostly Cloudy
11:11 AM 80.6 °F 84.6 °F 71.6 °F 74% 30.07 in 8.0 mi SE 4.6 mph - N/A   Mostly Cloudy
11:53 AM 82.0 °F 87.4 °F 73.0 °F 74% 30.04 in 8.0 mi Calm Calm - N/A   Mostly Cloudy
12:53 PM 84.9 °F 90.7 °F 72.0 °F 65% 30.02 in 10.0 mi Variable 4.6 mph - N/A   Scattered Clouds
1:53 PM 86.0 °F 90.7 °F 70.0 °F 59% 30.01 in 10.0 mi Calm Calm - N/A   Scattered Clouds
2:53 PM 87.1 °F 91.3 °F 69.1 °F 55% 29.99 in 10.0 mi SSE 5.8 mph - N/A   Scattered Clouds
3:53 PM 88.0 °F 92.1 °F 69.1 °F 53% 29.97 in 10.0 mi Variable 3.5 mph - N/A   Scattered Clouds
4:53 PM 87.1 °F 91.3 °F 69.1 °F 55% 29.97 in 10.0 mi Variable 3.5 mph - N/A   Scattered Clouds
5:53 PM 86.0 °F 89.4 °F 68.0 °F 55% 29.96 in 10.0 mi Calm Calm - N/A   Partly Cloudy
6:53 PM 84.9 °F 88.2 °F 68.0 °F 57% 29.96 in 10.0 mi Calm Calm - N/A   Clear
7:53 PM 82.9 °F 87.5 °F 71.1 °F 67% 29.98 in 9.0 mi Calm Calm - N/A   Mostly Cloudy
8:53 PM 75.9 °F - 73.9 °F 94% 29.98 in 7.0 mi Calm Calm - N/A   Mostly Cloudy
9:53 PM 75.9 °F - 73.0 °F 91% 29.98 in 8.0 mi NE 4.6 mph - N/A   Clear
10:53 PM 73.9 °F - 70.0 °F 87% 29.99 in 9.0 mi ESE 4.6 mph - N/A   Partly Cloudy
11:53 PM 73.0 °F - 70.0 °F 90% 29.99 in 9.0 mi East 3.5 mph - N/A   Mostly Cloudy